Other Surface Observations
Issued by NWS Charleston, SC

Home | Current Version | Previous Version | Text Only | Print | Product List | Glossary On
Versions: 1 2 3 4 5 6 7 8 9 10 11 12 13 14 15 16 17 18 19 20 21 22 23 24 25 26 27 28 29 30 31 32 33 34 35 36 37 38 39 40 41 42 43 44 45 46 47 48 49 50
966
SXUS52 KCHS 270927
OSOCHS

MARINE OBSERVATIONS
NATIONAL WEATHER SERVICE CHARLESTON SC
500 AM EDT TUE JUN 27 2017

...DOWNTOWN CHARLESTON AND HARBOR...

CITY           SKY/WX    TMP DP  RH WIND       PRES   REMARKS
WATERFRONT PRK   N/A     76  69  79 VRB2      30.00S

...LAKE MOULTRIE...

CITY           SKY/WX    TMP DP  RH WIND       PRES   REMARKS
PINOPOLIS        N/A     73  70  88 CALM      29.94S

...LAKE AND SUPPLEMENTAL COASTAL OBSERVATIONS...

STATION/POSITION TIME  TEMP    WIND        PRES    WAVE   SWELL
                       AIR SEA DIR/SP/G            HT/PER HT/PER/DIR
                 (UTC) (F)     (DEG/KT/KT) (MB)    (FT/S) (FT/S/D)
FORT PULASKI     0900   77 84  360/  5/  5 1016.6
SAPELO ISLAND    0900   75        CALM     1016.0
WINYAH BAY       0830   69     310/  4     1016.0S
LAKE MURRAY      0920   70      CALM  /  2 1016.3
ACE BASIN NERRS  0845   71        CALM     1017.0S


...C-MAN AND BUOY OBSERVATIONS...

STATION/POSITION TIME  TEMP    WIND        PRES    WAVE   SWELL
                       AIR SEA DIR/SP/G            HT/PER HT/PER/DIR
                 (UTC) (F)     (DEG/KT/KT) (MB)    (FT/S) (FT/S/D)
BUOY 41004       0910   79 81   20/  4/  6 1016.0
BUOY 41008       0850   79 82   30/  2/  4 1015.9S   2/ 8   2/ 80/ 8
FOLLY BEACH CMAN 0900   74     290/  3/  4 1017.1R
CAPERS NS BUOY   0908   85 83   70/  2/  4 1016.5R
FRIPP NS BUOY    0908   80 83   50/  4/  6 1016.2R
5E ST. MARYS GA  0900      80                N/A     2/ 8


STATION/POSITION TIME  TEMP    WIND        PRES    WAVE   SWELL
                       AIR SEA DIR/SP/G            HT/PER HT/PER/DIR
                 (UTC) (F)     (DEG/KT/KT) (MB)    (FT/S) (FT/S/D)
FRYING PAN BUOY  0910   78 80   10/  6/  8 1016.0
BUOY 41025       0850   77 81  330/  6/  8 1015.8S   1/ 6   2/170/ 6
CAPE LOOKOUT NC  0900   76      20/  3/  3 1015.6F
BUOY 41002       0850   78 80  260/ 16/ 19 1015.6F   3/ 5   2/100/ 9
BUOY 41010       0910   83 83  190/ 16/ 17 1015.5
ST AUGUSTINE FL  0900   75 78  290/  3/  4 1015.8F

$$




USA.gov is the U.S. government's official web portal to all federal, state and local government web resources and services.